Riverton, WY

5:59 AM MDT on April 21, 2018 (GMT -0600)
Riverton Regional

Weather History for KRIW - March, 2012

Change the Weather History Date:

Monday, March 26, 2012

  Actual Average Record
Temperature  
Mean Temperature 54 °F 39 °F  
Max Temperature 69 °F 51 °F 69 °F (2012)
Min Temperature 39 °F 27 °F 1 °F (1996)
Degree Days  
Heating Degree Days 11 26  
Month to date heating degree days 579 790  
Since 1 July heating degree days 5965 6644  
Cooling Degree Days 0 0  
Month to date cooling degree days 0 0  
Year to date cooling degree days 0 0  
Growing Degree Days 2 (Base 50)    
Moisture  
Dew Point 18 °F    
Average Humidity 26    
Maximum Humidity 42    
Minimum Humidity 10    
Precipitation  
Precipitation T in 0.03 in 0.29 in (2018)
Month to date precipitation 0.03 0.41  
Year to date precipitation 0.50 0.92  
Snow  
Snow 0.00 in - - ()
Month to date snowfall 1.3  
Since 1 July snowfall 26.4  
Snow Depth 0.00 in    
Sea Level Pressure  
Sea Level Pressure 29.54 in    
Wind  
Wind Speed 17 mph (SSW)    
Max Wind Speed 52 mph    
Max Gust Speed 64 mph    
Visibility 9 miles    
Events      
T = Trace of Precipitation, MM = Missing Value Source: NWS Daily Summary

Daily Weather History Graph

Daily Weather History Graph

Search for Another Location

Airport or City:

Astronomy

Mar. 26, 2012 Rise Set
Actual Time 7:05 AM MDT 7:33 PM MDT
Civil Twilight 6:36 AM MDT 8:02 PM MDT
Nautical Twilight 6:03 AM MDT 8:36 PM MDT
Astronomical Twilight 5:28 AM MDT 9:10 PM MDT
Moon 8:49 AM MDT (3/26) 11:54 PM MDT (3/26)
Length of Visible Light 13h 25m
Length of Day
12h 28m
Waxing Crescent, 15% of the Moon is Illuminated
Mar 26
Waxing Crescent
Mar 30
First Quarter
Apr 6
Full
Apr 13
Last Quarter
Apr 21
New

Hourly Weather History & Observations

Time (MDT) Temp. Windchill Dew Point Humidity Pressure Visibility Wind Dir Wind Speed Gust Speed Precip Events Conditions
12:53 AM 55.0 °F - 18.0 °F 23% 29.61 in 10.0 mi SE 3.5 mph - N/A   Clear
1:53 AM 54.0 °F - 19.0 °F 25% 29.59 in 10.0 mi SSE 6.9 mph - N/A   Clear
2:53 AM 53.1 °F - 19.0 °F 26% 29.57 in 10.0 mi South 8.1 mph - N/A   Clear
3:53 AM 52.0 °F - 19.0 °F 27% 29.55 in 10.0 mi ESE 5.8 mph - N/A   Clear
4:53 AM 52.0 °F - 18.0 °F 26% 29.54 in 10.0 mi South 11.5 mph - N/A   Clear
5:53 AM 50.0 °F - 18.0 °F 28% 29.53 in 10.0 mi South 15.0 mph - N/A   Clear
6:53 AM 48.9 °F - 18.0 °F 29% 29.53 in 10.0 mi South 11.5 mph - N/A   Clear
7:53 AM 51.1 °F - 18.0 °F 27% 29.52 in 10.0 mi SSE 12.7 mph 23.0 mph N/A   Clear
8:53 AM 54.0 °F - 17.1 °F 23% 29.52 in 10.0 mi SSE 13.8 mph - N/A   Clear
11:53 AM 64.0 °F - 12.0 °F 13% 29.41 in 10.0 mi South 13.8 mph 24.2 mph N/A   Clear
12:53 PM 66.0 °F - 8.1 °F 10% 29.33 in 10.0 mi SSW 23.0 mph 36.8 mph N/A   Partly Cloudy
1:39 PM 57.2 °F - 17.6 °F 21% 29.52 in 1.8 mi SSW 51.8 mph 64.4 mph N/A   Haze
1:49 PM 53.6 °F - 26.6 °F 35% 29.55 in 2.0 mi SSW 44.9 mph 61.0 mph N/A   Haze
1:50 PM 54.0 °F - 26.1 °F 34% 29.44 in 2.5 mi SSW 46.0 mph 59.8 mph N/A   Haze
1:57 PM 55.4 °F - 26.6 °F 33% 29.56 in 6.0 mi SSW 41.4 mph 58.7 mph N/A   Haze
2:53 PM 48.9 °F - 23.0 °F 36% 29.47 in 10.0 mi SW 31.1 mph 43.7 mph N/A   Partly Cloudy
3:53 PM 53.1 °F - 12.9 °F 20% 29.46 in 10.0 mi SW 28.8 mph 40.3 mph N/A   Clear
4:41 PM 50.0 °F - 15.8 °F 26% 29.55 in 10.0 mi West 20.7 mph 27.6 mph N/A   Scattered Clouds
4:53 PM 51.1 °F - 16.0 °F 25% 29.42 in 10.0 mi West 26.5 mph 35.7 mph N/A   Mostly Cloudy
5:53 PM 46.9 °F - 24.1 °F 41% 29.50 in 10.0 mi WSW 11.5 mph - 0.00 in   Overcast
6:53 PM 48.9 °F - 15.1 °F 26% 29.51 in 10.0 mi West 31.1 mph 42.6 mph N/A   Partly Cloudy
7:53 PM 45.0 °F 37.1 °F 16.0 °F 31% 29.57 in 10.0 mi West 19.6 mph 31.1 mph N/A   Clear
8:53 PM 42.1 °F 37.1 °F 16.0 °F 35% 29.63 in 10.0 mi SSW 8.1 mph - N/A   Clear
9:53 PM 39.9 °F 32.5 °F 16.0 °F 38% 29.68 in 10.0 mi NW 12.7 mph - N/A   Clear
10:53 PM 41.0 °F 31.1 °F 18.0 °F 40% 29.69 in 10.0 mi WNW 23.0 mph - N/A   Clear
11:53 PM 39.9 °F 31.4 °F 18.0 °F 41% 29.74 in 10.0 mi West 16.1 mph - N/A   Clear